BIRK

Reykjavik Airport

Reykjavik, Iceland
Issued Wind Visibility Temperature Dew Point Humidity Barometer
Dec-11
00:00 UTC
Varies @2 KTS 10,000+ meters -8° C
18° F
-14° C
F
62% 29.7" Hg
1006 hPa
VFR
Dec-10
23:00 UTC
110°
3 KTS
10,000+ meters -9° C
16° F
-15° C
F
62% 29.7" Hg
1006 hPa
VFR
Dec-10
22:00 UTC
110°
5 KTS
10,000+ meters -7° C
19° F
-15° C
F
53% 29.7" Hg
1006 hPa
VFR
Dec-10
21:00 UTC
080°
3 KTS
10,000+ meters -7° C
19° F
-14° C
F
58% 29.68" Hg
1005 hPa
VFR
Dec-10
20:00 UTC
100°
5 KTS
10,000+ meters -6° C
21° F
-14° C
F
54% 29.68" Hg
1005 hPa
VFR
Dec-10
19:00 UTC
110°
5 KTS
10,000+ meters -7° C
19° F
-15° C
F
53% 29.68" Hg
1005 hPa
VFR
Dec-10
18:00 UTC
170°
3 KTS
10,000+ meters -8° C
18° F
-13° C
F
68% 29.65" Hg
1004 hPa
VFR
Dec-10
17:00 UTC
130°
3 KTS
10,000+ meters -8° C
18° F
-15° C
F
58% 29.65" Hg
1004 hPa
VFR
Dec-10
16:00 UTC
110°
4 KTS
10,000+ meters -6° C
21° F
-15° C
F
49% 29.65" Hg
1004 hPa
VFR
Dec-10
15:00 UTC
090°
5 KTS
10,000+ meters -6° C
21° F
-14° C
F
54% 29.65" Hg
1004 hPa
VFR
Dec-10
14:00 UTC
110°
4 KTS
10,000+ meters -7° C
19° F
-14° C
F
58% 29.65" Hg
1004 hPa
VFR
Dec-10
13:00 UTC
090°
5 KTS
10,000+ meters -7° C
19° F
-15° C
F
53% 29.65" Hg
1004 hPa
VFR
Dec-10
12:00 UTC
100°
4 KTS
10,000+ meters -8° C
18° F
-15° C
F
58% 29.62" Hg
1003 hPa
VFR
Dec-10
11:00 UTC
080°
5 KTS
10,000+ meters -8° C
18° F
-14° C
F
62% 29.65" Hg
1004 hPa
VFR
Dec-10
10:00 UTC
100°
6 KTS
10,000+ meters -7° C
19° F
-15° C
F
53% 29.62" Hg
1003 hPa
VFR
Dec-10
09:00 UTC
080°
4 KTS
10,000+ meters -9° C
16° F
-15° C
F
62% 29.62" Hg
1003 hPa
VFR
Dec-10
08:00 UTC
Varies @2 KTS 10,000+ meters -7° C
19° F
-15° C
F
53% 29.62" Hg
1003 hPa
VFR
Dec-10
07:00 UTC
Varies @1 KTS 10,000+ meters -7° C
19° F
-15° C
F
53% 29.62" Hg
1003 hPa
VFR
Dec-10
06:00 UTC
080°
3 KTS
10,000+ meters -6° C
21° F
-14° C
F
54% 29.62" Hg
1003 hPa
VFR
Dec-10
05:00 UTC
030°
5 KTS
10,000+ meters -5° C
23° F
-13° C
F
54% 29.65" Hg
1004 hPa
VFR
Dec-10
04:00 UTC
Varies @2 KTS 10,000+ meters -5° C
23° F
-11° C
12° F
63% 29.65" Hg
1004 hPa
VFR
Dec-10
03:00 UTC
100°
5 KTS
10,000+ meters -5° C
23° F
-12° C
10° F
58% 29.65" Hg
1004 hPa
VFR
Dec-10
02:00 UTC
040°
9 KTS
10,000+ meters -4° C
25° F
-12° C
10° F
54% 29.68" Hg
1005 hPa
VFR
Dec-10
01:00 UTC
090°
11 KTS
10,000+ meters -3° C
27° F
-13° C
F
46% 29.68" Hg
1005 hPa
VFR